Dewpoint
76 75 75 75 75 76 76 76 75 75 74 74 75 74 74 74 74 74 73 74 73 72 72 72 72 72 72 73 73 73 74 75 75 75 75 75 74 74 75 76 76 77 76 75 76 75 75 75 75 75 74 75 75 74 76 75 74 75 74 74 75 74 74 74 75 74 74 74 75 74 74 74 74 73 74 74 74 73 73 73 74 74 73 73 74
75 76 75 76 76 76 75 75 75 75 75 74 75 74 73 73 74 74 74 73 72 73 73 72 72 73 73 72 72 73 73 74 75 75 75 75 74 74 75 75 77 77 76 76 75 75 75 75 75 75 75 75 74 75 75 74 74 75 75 74 75 75 75 75 74 74 73 74 74 74 74 74 74 74 74 73 74 73 73 74 74 74 73 73 73
77 76 76 76 75 74 74 74 74 74 75 75 75 74 73 74 74 73 72 71 72 72 73 72 72 73 73 72 71 72 72 74 74 75 75 74 73 73 74 75 76 77 77 77 76 75 74 75 74 74 75 75 74 74 74 74 74 75 74 74 75 75 75 75 74 74 73 74 74 74 74 74 74 74 74 74 73 73 74 74 74 74 73 73 73
77 77 77 76 75 75 74 74 73 74 75 75 75 75 74 74 74 73 72 73 73 73 73 73 73 73 73 73 72 72 73 73 73 74 75 74 73 73 73 74 76 77 76 76 76 75 73 74 73 73 74 74 74 74 74 74 74 75 74 74 74 74 75 75 75 74 74 74 74 74 73 74 74 74 74 74 73 73 74 74 73 74 74 73 73
77 77 77 75 75 75 75 74 73 74 74 74 74 75 74 73 72 73 73 72 71 72 73 72 72 72 72 72 73 73 72 72 74 74 74 73 72 73 74 76 76 77 77 76 76 75 75 75 74 74 73 74 74 74 74 74 75 75 74 74 74 74 75 75 75 74 74 74 74 75 74 74 74 74 74 74 73 74 74 73 74 74 74 74 74
76 76 75 75 75 75 74 73 73 73 74 74 73 74 73 73 73 72 73 73 71 71 71 71 72 72 73 73 73 73 73 74 73 73 73 73 72 72 73 75 76 76 76 76 76 76 75 75 75 75 73 72 74 74 74 74 75 74 74 74 74 74 75 75 75 75 74 74 75 74 74 75 75 74 74 74 74 74 73 73 74 73 74 74 74
75 75 75 75 74 73 72 73 74 74 73 73 73 73 74 73 73 72 72 71 71 72 71 70 71 71 71 73 73 73 74 74 73 73 72 72 72 72 73 74 75 75 76 76 76 76 76 75 72 73 74 73 74 74 74 74 75 74 74 74 74 74 75 74 74 74 74 74 75 74 74 75 74 75 73 74 73 74 74 74 74 74 74 73 73
75 75 74 74 73 72 72 73 74 74 73 73 73 73 73 73 73 72 71 70 72 70 71 71 72 72 71 72 73 74 74 73 72 73 72 71 71 72 71 71 73 74 77 75 75 75 77 76 75 75 75 74 74 74 73 73 74 74 74 74 73 74 74 74 74 74 74 74 74 74 74 75 74 74 74 74 73 74 74 74 74 74 74 74 74
75 75 75 74 73 73 73 73 73 73 72 72 73 73 73 73 72 74 71 70 71 71 71 71 71 72 72 72 72 74 74 73 73 72 73 71 71 70 70 71 73 77 76 75 75 75 76 76 76 76 75 74 74 74 73 74 73 73 74 74 74 74 74 73 75 74 74 75 75 74 73 74 74 74 73 74 74 74 74 74 74 73 74 73 74
75 75 74 74 74 73 73 72 73 73 72 72 72 73 73 72 72 71 73 71 70 70 71 71 72 72 72 72 72 72 73 72 74 75 70 70 71 71 70 70 72 74 75 74 74 74 75 76 76 76 75 75 74 74 74 73 73 73 74 74 74 74 73 75 74 74 75 74 74 73 72 74 75 74 73 74 74 74 74 74 74 74 74 74 74
75 75 74 74 73 73 72 72 72 72 72 71 70 71 68 66 70 72 71 71 71 71 71 72 72 72 72 72 72 72 73 73 74 70 69 70 72 73 72 72 72 72 73 73 74 74 74 74 73 73 73 74 74 74 74 74 74 74 73 74 74 74 74 74 73 73 74 74 74 73 73 74 74 74 74 74 74 74 74 74 74 74 74 74 74
74 74 73 74 72 72 72 72 72 71 71 70 69 68 63 59 60 69 70 70 72 73 71 71 72 69 72 71 71 71 72 74 73 72 72 71 72 73 71 71 71 71 73 73 73 73 73 73 74 73 73 74 74 74 74 73 73 73 73 74 74 74 73 73 73 73 74 73 72 73 73 73 74 74 74 74 74 75 74 74 74 74 74 74 74
74 73 73 73 72 72 72 70 71 70 70 68 66 63 60 59 59 61 66 66 68 68 71 71 68 68 68 68 70 72 75 74 71 71 72 71 71 72 72 70 70 71 72 72 72 72 72 72 73 73 73 73 73 74 74 74 73 73 74 73 74 73 73 73 74 74 73 73 73 73 72 72 72 73 73 73 74 74 74 74 74 74 74 74 74
74 73 73 72 72 71 71 71 70 70 68 64 60 61 55 55 56 55 59 65 64 62 63 69 67 64 64 65 67 68 71 72 71 71 71 71 71 70 72 69 69 70 71 72 72 73 73 73 73 73 72 72 72 72 73 74 73 73 73 73 73 73 73 73 73 73 73 73 74 73 72 73 73 72 73 74 73 74 74 74 74 74 74 74 74
74 74 72 72 72 71 70 70 69 70 61 58 56 54 55 55 55 56 55 57 61 60 55 62 61 65 66 64 61 59 64 65 68 70 70 71 70 71 73 70 69 70 71 71 72 72 72 72 72 72 72 72 72 72 72 73 73 73 72 73 73 72 73 73 73 73 73 74 74 72 72 71 72 72 72 73 73 74 73 73 74 74 74 74 74
73 74 72 72 72 71 69 67 66 69 63 56 55 54 54 54 53 56 57 52 50 50 56 54 56 54 49 57 61 60 51 54 61 66 69 70 70 70 71 69 69 71 70 70 71 71 71 72 72 72 71 71 71 71 71 71 73 73 72 73 73 72 73 74 74 74 74 74 73 74 74 73 72 73 73 72 73 74 73 73 73 74 74 74 74
73 73 73 71 71 71 68 65 65 63 64 60 56 53 53 54 54 54 55 56 52 51 50 53 53 58 50 50 47 51 51 53 59 63 67 67 68 70 71 70 69 70 70 70 70 71 71 71 72 71 71 71 71 71 71 71 72 73 73 72 72 73 73 73 73 73 73 74 74 74 73 73 74 73 73 73 73 73 73 73 74 73 73 74 74
73 73 73 74 71 70 67 63 63 63 62 61 58 55 54 53 55 54 54 56 55 51 46 50 55 55 53 50 49 45 48 53 47 46 59 68 69 70 70 70 69 70 69 70 70 71 73 71 71 71 71 71 71 71 71 71 73 71 71 72 72 73 73 73 74 73 74 74 73 74 74 73 73 73 73 73 73 73 73 73 74 73 73 74 74
73 73 72 73 71 68 65 64 64 63 65 59 57 57 58 58 59 55 56 59 56 54 49 48 48 49 50 50 54 61 56 49 44 53 47 54 65 67 67 68 68 69 70 70 71 71 71 71 71 70 71 72 71 71 71 72 72 71 71 71 72 72 73 73 73 74 73 73 73 73 74 74 74 73 73 72 73 73 74 74 74 74 73 73 74
72 71 72 73 70 66 64 64 64 66 64 61 59 57 56 57 60 58 57 58 57 57 54 49 47 49 52 48 48 48 49 54 53 47 49 50 50 58 63 59 66 68 70 70 71 70 71 70 70 70 71 72 72 71 70 71 71 72 72 72 72 72 72 73 72 72 73 72 73 72 74 74 74 73 73 73 73 73 73 73 73 74 73 73 73
73 72 71 69 69 65 64 64 64 66 66 62 61 57 56 56 57 56 55 55 57 59 58 53 48 48 47 47 47 45 45 47 49 53 48 45 46 48 48 51 60 65 68 70 70 71 71 70 71 70 72 73 71 70 70 70 70 71 72 71 71 72 72 72 72 72 72 73 72 73 74 74 74 73 73 73 72 72 73 73 73 72 73 74 74
73 74 69 67 66 66 64 63 64 68 69 62 60 60 58 58 57 57 55 53 55 55 58 54 49 50 49 50 48 47 43 45 46 48 49 46 43 44 48 47 46 51 67 68 70 71 72 71 71 70 70 71 71 71 70 69 70 71 72 72 72 72 71 72 72 72 72 73 73 72 72 72 73 73 72 72 71 72 74 73 73 73 73 73 73
72 72 68 67 67 69 65 66 69 69 65 64 59 59 59 58 57 55 54 53 52 53 53 54 49 50 49 49 49 46 47 47 47 49 44 44 44 43 47 48 47 46 49 63 70 70 71 71 70 69 69 70 71 71 71 70 72 72 72 73 72 72 72 72 72 72 73 73 73 72 72 72 72 72 72 71 72 72 73 72 72 72 73 74 73
72 71 67 67 68 67 69 66 68 65 64 64 59 57 57 58 57 53 51 52 52 54 52 54 49 49 49 49 50 46 49 49 51 50 48 48 46 44 47 49 50 47 48 55 64 69 70 70 70 70 70 70 70 72 72 72 72 73 73 73 72 72 72 72 72 72 72 72 72 72 72 72 72 72 72 72 72 72 72 72 72 72 73 73 73
71 70 68 68 68 65 65 64 64 69 66 62 61 59 58 58 57 51 50 52 52 52 51 53 50 49 49 50 51 49 46 48 52 50 51 50 49 47 48 49 47 48 48 50 51 57 69 70 70 70 70 70 71 71 72 72 72 73 74 73 72 72 73 73 72 72 72 72 71 72 72 71 71 73 72 72 72 72 72 71 72 72 72 73 73
71 69 69 67 67 67 68 65 66 67 65 62 60 61 60 59 56 52 51 53 52 52 52 54 52 50 51 50 51 51 50 47 50 49 50 49 48 47 49 52 49 49 51 52 53 50 52 61 69 71 70 70 70 71 71 72 72 74 73 72 71 72 72 71 72 73 72 71 71 71 72 72 72 72 73 72 72 72 72 72 72 72 72 72 73
70 69 70 66 66 66 66 65 64 63 62 59 57 57 58 56 56 54 55 54 53 54 53 53 52 51 51 52 54 52 52 51 51 50 51 52 50 50 51 47 46 50 53 53 54 50 50 52 61 63 65 70 70 71 71 71 73 74 74 72 69 71 71 71 70 71 71 71 72 72 72 72 73 73 72 73 73 72 72 73 72 71 72 72 71
68 67 65 64 65 65 63 63 63 62 61 59 57 57 58 57 55 55 54 57 55 54 54 53 53 52 52 53 53 53 53 53 53 52 52 53 52 54 54 50 45 44 50 50 52 50 51 50 56 57 53 56 59 66 72 71 69 72 71 71 69 70 71 72 71 71 71 71 72 71 71 72 72 72 73 73 73 73 72 72 72 72 72 72 72
68 69 66 66 64 62 61 61 61 60 59 59 56 57 57 56 54 55 54 55 59 57 55 54 55 55 54 54 54 54 54 54 53 54 53 51 50 51 52 53 51 46 47 47 49 51 49 50 50 50 51 51 53 63 66 66 70 70 68 70 70 69 71 72 72 72 71 71 71 71 72 72 72 72 71 71 72 72 72 72 72 71 72 72 72
71 68 64 63 64 65 60 60 60 60 59 57 56 56 56 56 55 53 54 55 54 54 55 56 56 56 56 55 55 54 55 53 53 54 53 51 50 50 50 52 54 50 50 46 49 53 50 50 50 50 52 52 52 52 56 65 66 66 67 69 71 71 71 71 72 72 72 72 71 70 71 71 71 71 71 71 71 71 71 71 71 72 73 73 72
72 68 61 60 60 60 60 58 57 56 56 57 57 57 56 55 56 52 54 53 53 53 52 56 57 55 55 55 55 54 55 53 53 53 53 52 51 52 51 52 53 54 53 52 49 51 54 52 52 51 53 53 55 55 55 56 62 59 58 69 71 72 72 72 72 72 72 72 72 72 70 71 71 71 71 72 73 71 72 72 72 72 72 72 71
70 62 60 60 60 58 57 56 56 56 56 57 57 57 56 55 53 52 53 54 52 52 52 53 54 54 54 55 56 55 54 53 52 52 52 53 53 54 53 53 54 54 55 53 51 51 54 53 53 52 54 55 58 57 57 57 58 63 55 54 61 69 70 71 73 73 73 72 72 71 72 72 72 72 72 72 73 72 72 72 71 71 72 71 71
69 60 60 61 60 58 56 58 57 58 58 58 58 57 57 56 54 54 55 55 54 53 55 53 53 53 55 55 55 55 54 53 53 53 53 54 54 55 56 54 54 55 55 54 53 54 54 55 55 54 56 56 58 59 58 58 59 59 60 57 57 55 53 53 60 69 71 71 71 71 71 71 72 73 73 72 72 71 72 72 71 71 71 71 71
65 61 60 59 58 56 57 57 57 56 56 56 56 55 54 55 56 53 54 55 55 54 54 54 55 55 55 56 56 55 55 55 55 56 55 55 56 56 56 56 55 56 56 55 54 54 53 55 55 56 56 57 57 60 60 59 60 61 58 58 58 58 58 59 58 58 66 67 67 68 70 71 71 72 73 73 72 71 71 71 71 71 71 71 70
63 61 60 59 58 58 57 56 54 54 54 53 53 53 54 53 53 55 56 56 55 55 54 54 55 56 56 57 57 57 57 57 57 57 57 57 57 57 57 57 57 57 57 56 55 54 55 55 56 56 57 57 58 59 61 61 62 60 59 59 59 59 61 60 60 60 65 66 66 67 68 68 70 70 71 72 72 71 70 71 71 69 68 69 69
63 63 61 60 59 57 54 53 52 53 54 53 53 53 53 54 53 54 56 57 56 55 56 56 56 57 57 57 57 58 58 58 58 58 58 58 58 58 58 58 58 57 58 57 57 55 55 55 56 57 58 57 58 59 61 61 61 61 60 60 60 60 60 60 60 60 64 66 65 65 66 68 68 69 70 70 71 69 67 69 69 69 69 69 69
63 61 61 60 57 54 51 51 51 52 53 54 54 54 55 55 56 57 58 58 56 56 56 58 61 58 59 58 58 58 58 58 58 58 58 58 58 58 58 58 58 59 58 58 58 57 55 55 56 57 58 58 58 59 61 60 61 61 60 60 60 60 61 60 60 61 63 65 64 65 66 68 69 69 69 69 70 68 68 68 68 68 68 69 69
62 60 59 58 56 54 53 53 53 54 55 55 55 55 56 57 58 58 59 59 58 56 57 58 58 59 59 59 59 59 59 58 58 58 58 58 58 57 58 58 58 58 58 58 58 57 56 55 56 57 57 58 58 59 59 61 60 60 59 60 60 60 61 60 61 61 62 62 62 63 67 68 67 67 69 69 69 68 66 65 65 65 68 68 67
61 60 58 56 56 54 53 53 54 55 55 55 55 56 57 58 58 57 58 59 58 57 58 59 59 59 60 60 60 60 60 59 59 58 59 59 59 58 60 59 59 58 58 58 58 57 56 56 56 56 56 57 58 57 58 60 60 60 59 59 58 59 60 61 61 62 62 62 64 65 67 70 70 70 66 67 69 69 66 67 66 66 68 68 66
60 59 57 55 55 54 54 55 56 58 56 56 56 56 57 58 57 56 57 60 59 57 59 59 59 59 59 60 60 61 60 59 58 58 56 56 58 58 58 59 60 58 58 58 57 56 56 55 55 56 56 56 57 57 59 57 57 58 60 60 58 58 59 60 60 61 62 62 62 62 63 64 69 69 68 69 69 70 69 68 69 68 68 69 67
62 58 56 55 55 55 55 55 56 56 57 57 58 58 57 58 56 56 57 57 59 58 58 59 58 58 58 60 61 61 62 60 60 59 58 58 58 57 58 58 59 58 57 57 57 56 56 55 55 55 55 55 56 56 56 55 56 56 59 59 57 58 59 59 59 61 63 61 61 61 61 62 62 65 67 67 68 69 70 70 68 66 68 68 68
60 59 57 57 55 54 54 55 55 56 56 58 60 60 60 59 57 57 57 57 58 57 58 58 58 58 58 59 63 62 60 59 59 59 60 61 61 61 60 59 58 58 57 57 56 56 56 55 54 54 55 54 55 56 55 56 57 58 57 58 57 58 57 57 57 59 63 61 60 60 60 62 62 63 64 65 68 69 68 69 70 70 70 68 68
61 61 57 56 55 54 53 53 56 58 58 57 61 62 63 62 60 57 55 56 57 57 58 57 57 58 58 59 59 61 61 62 60 61 62 63 63 62 61 61 61 59 57 56 56 57 57 55 54 55 54 55 55 56 56 57 57 57 57 57 57 58 56 56 54 58 62 60 60 59 59 61 62 61 63 63 63 65 67 68 68 69 69 68 68
62 59 57 56 56 54 54 55 57 58 57 58 61 61 62 63 64 58 56 56 58 57 58 58 58 58 58 59 59 60 59 59 59 58 60 63 63 63 62 62 62 62 61 59 59 56 56 55 55 55 54 55 55 56 56 56 56 56 57 56 56 55 56 55 54 54 58 63 60 59 58 60 61 63 63 64 64 64 65 65 65 67 68 68 68
62 60 59 57 56 54 54 54 56 59 55 56 62 61 62 63 63 60 57 56 59 58 58 58 57 57 58 59 58 58 58 60 61 57 57 58 62 62 62 62 62 61 60 60 61 62 57 55 56 55 55 55 55 56 58 58 59 57 56 55 55 55 55 55 55 56 59 62 60 57 56 58 60 62 62 62 63 63 64 64 64 66 67 67 67
60 58 57 57 56 55 56 57 58 58 56 58 60 60 62 62 62 61 58 57 58 58 58 58 58 58 57 58 57 57 56 57 58 58 58 57 57 58 57 57 57 60 61 62 62 62 61 58 57 56 57 58 58 58 59 59 58 57 55 55 54 55 56 56 57 58 59 61 60 57 56 57 60 60 62 61 62 62 62 62 64 67 67 67 67
56 55 55 56 57 60 58 58 59 58 57 60 61 61 60 60 61 61 59 57 56 57 58 58 58 58 57 58 57 56 55 55 59 60 58 57 56 57 56 56 56 56 57 58 58 60 61 60 58 58 58 58 58 58 58 58 58 58 57 57 57 57 58 57 57 58 59 61 60 58 56 56 58 60 62 61 61 60 61 62 63 64 65 65 64
63 60 59 58 60 58 58 58 57 55 56 61 60 60 60 59 60 58 58 58 57 58 58 58 58 57 57 57 57 56 55 55 59 60 61 58 56 56 56 55 55 56 56 60 60 61 62 61 60 60 59 60 63 62 62 60 59 59 61 59 57 56 56 54 54 56 58 61 61 58 56 56 58 60 61 61 60 60 60 60 61 62 63 63 63
60 58 58 59 58 58 58 57 54 53 54 57 59 59 59 59 58 56 57 56 56 57 57 57 57 57 57 56 56 56 56 55 58 60 62 59 55 56 55 54 55 55 56 56 60 61 62 62 63 64 63 63 63 63 63 63 62 61 59 57 55 55 56 55 56 54 55 60 61 61 57 56 58 60 61 61 61 59 59 59 60 60 61 62 62
58 58 58 58 58 59 58 55 54 52 53 56 60 58 57 60 60 55 55 54 54 55 57 58 58 58 59 59 62 56 55 56 59 59 61 59 55 55 55 53 54 54 55 56 57 59 61 62 62 63 63 62 62 63 62 62 62 62 56 55 57 58 57 57 55 56 55 58 61 62 57 55 57 60 60 61 60 60 59 59 60 60 60 60 61
58 59 61 57 58 59 58 56 62 54 52 59 58 56 57 59 59 54 56 53 52 54 55 57 58 58 57 61 59 60 57 58 58 58 59 59 55 55 55 53 53 54 55 55 57 58 58 58 58 60 61 61 61 61 62 64 64 64 59 57 57 56 56 56 56 57 56 56 60 62 58 55 56 58 60 59 57 59 60 60 60 59 60 60 60